Location: Unspecified
(0.0000°N, 0.0000°E)
Time: 17:46:53
(UTC+00:00)

Explorer 7 - Pass Details

Date: 27 July 2019
Orbit: 485 x 680 km, 50.3° (Epoch: 06 December)

Event Time Altitude Azimuth Distance (km) Brightness Sun altitude
Exits shadow 03:35:12 16° 71° (ENE) 1,513 9.7 -35.4°
Drops below altitude 10° 03:37:02 10° 95° (E) 1,883 10.2 -35.0°
Sets 03:40:03 0° 115° (ESE) 2,831 11.0 -34.3°
